Location: Godiavel Galaoual
(15.2485°N, 12.6604°W)
Time: 00:31:32
(UTC+00:00)

Transit 4A - Pass Details

Date: 22 June 2021
Orbit: 872 x 972 km, 66.8° (Epoch: 29 July)

Event Time Altitude Azimuth Distance (km) Brightness Sun altitude
Rises 08:03:36 0° 183° (S) 3,609 10.8 22.0°
Reaches altitude 10° 08:06:21 10° 175° (S) 2,651 10.2 22.6°
Maximum altitude 08:11:59 38° 108° (ESE) 1,371 9.9 23.9°
Drops below altitude 10° 08:17:30 10° 42° (NE) 2,589 11.4 25.1°
Sets 08:20:08 0° 34° (NE) 3,516 11.7 25.7°
